Location: Wanzleben
(52.0609°N, 11.4408°E)
Time: 19:28:39
(UTC+00:00)

Lacrosse 5 rocket - Pass Details

Date: 18 September 2020
Orbit: 461 x 635 km, 57.0° (Epoch: 21 October)

Event Time Altitude Azimuth Distance (km) Brightness Sun altitude
Rises 18:07:35 0° 248° (WSW) 2,728 5.9 -7.9°
Reaches altitude 10° 18:09:46 10° 251° (WSW) 1,865 5.0 -8.2°
Maximum altitude 18:14:00 72° 335° (NNW) 626 1.7 -8.9°
Drops below altitude 10° 18:18:30 10° 61° (ENE) 1,970 3.7 -9.5°
Enters shadow 18:19:36 - 63° (ENE) 2,402 4.1 -9.7°
